Time,TemperatureF,DewpointF,PressureIn,WindDirection,WindDirectionDegrees,WindSpeedMPH,WindSpeedGustMPH,Humidity,HourlyPrecipIn,Conditions,Clouds,dailyrainin,SoftwareType,DateUTC
2013-03-24 00:10:00,35.1,29.0,30.04,NW,318,4.0,25.0,78,0.00,,,0.00,weatherlink.com 1.10,2013-03-24 05:10:00,
2013-03-24 00:25:00,34.5,28.0,30.04,North,355,8.0,22.0,78,0.00,,,0.00,weatherlink.com 1.10,2013-03-24 05:25:00,
2013-03-24 00:40:00,34.1,29.0,30.04,North,360,13.0,22.0,80,0.00,,,0.00,weatherlink.com 1.10,2013-03-24 05:40:00,
2013-03-24 00:55:00,34.2,28.0,30.04,NNW,343,15.0,19.0,79,0.00,,,0.00,weatherlink.com 1.10,2013-03-24 05:55:00,
2013-03-24 01:10:00,34.4,28.0,30.05,NW,323,13.0,23.0,78,0.00,,,0.00,weatherlink.com 1.10,2013-03-24 06:10:00,
2013-03-24 01:25:00,34.1,28.0,30.06,North,360,5.0,22.0,77,0.00,,,0.00,weatherlink.com 1.10,2013-03-24 06:25:00,
2013-03-24 01:40:00,34.1,27.0,30.07,NNW,334,16.0,29.0,76,0.00,,,0.00,weatherlink.com 1.10,2013-03-24 06:40:00,
2013-03-24 01:55:00,34.6,27.0,30.07,NW,306,12.0,29.0,74,0.00,,,0.00,weatherlink.com 1.10,2013-03-24 06:55:00,
2013-03-24 02:10:00,34.4,27.0,30.08,NW,310,14.0,21.0,75,0.00,,,0.00,weatherlink.com 1.10,2013-03-24 07:10:00,
2013-03-24 02:25:00,33.7,27.0,30.09,NW,310,17.0,21.0,76,0.00,,,0.00,weatherlink.com 1.10,2013-03-24 07:25:00,
2013-03-24 02:40:00,33.5,26.0,30.09,NNW,331,17.0,28.0,75,0.00,,,0.00,weatherlink.com 1.10,2013-03-24 07:40:00,
2013-03-24 02:55:00,33.4,26.0,30.09,NNW,348,10.0,24.0,73,0.00,,,0.00,weatherlink.com 1.10,2013-03-24 07:55:00,
2013-03-24 03:10:00,32.9,25.0,30.10,North,355,9.0,22.0,74,0.00,,,0.00,weatherlink.com 1.10,2013-03-24 08:10:00,
2013-03-24 03:25:00,32.4,25.0,30.10,NW,325,15.0,24.0,74,0.00,,,0.00,weatherlink.com 1.10,2013-03-24 08:25:00,
2013-03-24 03:40:00,31.8,25.0,30.10,NW,323,14.0,19.0,76,0.00,,,0.00,weatherlink.com 1.10,2013-03-24 08:40:00,
2013-03-24 03:55:00,31.5,25.0,30.11,NW,317,9.0,19.0,76,0.00,,,0.00,weatherlink.com 1.10,2013-03-24 08:55:00,
2013-03-24 04:10:00,31.9,25.0,30.11,NNW,340,13.0,23.0,75,0.00,,,0.00,weatherlink.com 1.10,2013-03-24 09:10:00,
2013-03-24 04:25:00,31.9,25.0,30.11,NW,319,20.0,24.0,74,0.00,,,0.00,weatherlink.com 1.10,2013-03-24 09:25:00,
2013-03-24 04:40:00,31.9,24.0,30.11,North,360,13.0,26.0,73,0.00,,,0.00,weatherlink.com 1.10,2013-03-24 09:40:00,
2013-03-24 04:55:00,31.8,24.0,30.11,WNW,294,13.0,22.0,73,0.00,,,0.00,weatherlink.com 1.10,2013-03-24 09:55:00,
2013-03-24 05:10:00,31.5,24.0,30.12,NNW,329,14.0,26.0,73,0.00,,,0.00,weatherlink.com 1.10,2013-03-24 10:10:00,
2013-03-24 05:26:00,31.3,24.0,30.12,NNE,12,16.0,26.0,73,0.00,,,0.00,weatherlink.com 1.10,2013-03-24 10:26:00,
2013-03-24 05:41:00,31.2,23.0,30.13,NNE,15,14.0,24.0,73,0.00,,,0.00,weatherlink.com 1.10,2013-03-24 10:41:00,
2013-03-24 05:56:00,31.2,24.0,30.14,NW,324,11.0,17.0,74,0.00,,,0.00,weatherlink.com 1.10,2013-03-24 10:56:00,
2013-03-24 06:11:00,31.1,23.0,30.16,NNW,334,12.0,21.0,73,0.00,,,0.00,weatherlink.com 1.10,2013-03-24 11:11:00,
2013-03-24 06:26:00,30.8,23.0,30.16,NNE,19,8.0,22.0,72,0.00,,,0.00,weatherlink.com 1.10,2013-03-24 11:26:00,
2013-03-24 07:26:00,29.7,22.0,30.19,NW,324,11.0,22.0,73,0.00,,,0.00,weatherlink.com 1.10,2013-03-24 12:26:00,
2013-03-24 07:41:00,29.3,22.0,30.20,NNW,332,12.0,20.0,73,0.00,,,0.00,weatherlink.com 1.10,2013-03-24 12:41:00,
2013-03-24 08:11:00,29.0,22.0,30.23,NNW,341,8.0,18.0,74,0.00,,,0.00,weatherlink.com 1.10,2013-03-24 13:11:00,
2013-03-24 08:26:00,29.2,22.0,30.23,NNW,338,6.0,19.0,73,0.00,,,0.00,weatherlink.com 1.10,2013-03-24 13:26:00,
2013-03-24 08:41:00,29.6,22.0,30.23,NNW,348,9.0,20.0,73,0.00,,,0.00,weatherlink.com 1.10,2013-03-24 13:41:00,
2013-03-24 08:56:00,30.0,22.0,30.24,WNW,295,17.0,19.0,72,0.00,,,0.00,weatherlink.com 1.10,2013-03-24 13:56:00,
2013-03-24 09:11:00,30.7,22.0,30.25,North,351,17.0,22.0,69,0.00,,,0.00,weatherlink.com 1.10,2013-03-24 14:11:00,
2013-03-24 09:26:00,30.8,21.0,30.24,North,355,8.0,26.0,68,0.00,,,0.00,weatherlink.com 1.10,2013-03-24 14:26:00,
2013-03-24 09:56:00,32.1,21.0,30.25,NW,324,18.0,27.0,63,0.00,,,0.00,weatherlink.com 1.10,2013-03-24 14:56:00,
2013-03-24 10:11:00,32.4,20.0,30.26,North,349,15.0,26.0,61,0.00,,,0.00,weatherlink.com 1.10,2013-03-24 15:11:00,
2013-03-24 10:26:00,33.0,21.0,30.26,NNW,329,8.0,24.0,62,0.00,,,0.00,weatherlink.com 1.10,2013-03-24 15:26:00,
2013-03-24 10:41:00,33.9,21.0,30.26,WNW,303,16.0,22.0,59,0.00,,,0.00,weatherlink.com 1.10,2013-03-24 15:41:00,
2013-03-24 10:56:00,34.5,20.0,30.26,NNE,18,10.0,24.0,56,0.00,,,0.00,weatherlink.com 1.10,2013-03-24 15:56:00,
2013-03-24 11:12:00,35.0,21.0,30.25,NW,320,14.0,24.0,57,0.00,,,0.00,weatherlink.com 1.10,2013-03-24 16:12:00,
2013-03-24 11:27:00,35.7,19.0,30.26,North,5,12.0,22.0,51,0.00,,,0.00,weatherlink.com 1.10,2013-03-24 16:27:00,
2013-03-24 11:57:00,37.3,19.0,30.26,NNE,12,11.0,22.0,47,0.00,,,0.00,weatherlink.com 1.10,2013-03-24 16:57:00,
2013-03-24 12:12:00,37.5,18.0,30.25,WNW,298,12.0,20.0,45,0.00,,,0.00,weatherlink.com 1.10,2013-03-24 17:12:00,
2013-03-24 12:27:00,38.5,17.0,30.25,NNE,15,5.0,25.0,42,0.00,,,0.00,weatherlink.com 1.10,2013-03-24 17:27:00,
2013-03-24 12:42:00,38.5,17.0,30.25,NNW,341,14.0,20.0,42,0.00,,,0.00,weatherlink.com 1.10,2013-03-24 17:42:00,
2013-03-24 12:57:00,39.7,16.0,30.25,ENE,67,12.0,22.0,39,0.00,,,0.00,weatherlink.com 1.10,2013-03-24 17:57:00,
2013-03-24 13:12:00,40.0,15.0,30.24,North,350,10.0,23.0,36,0.00,,,0.00,weatherlink.com 1.10,2013-03-24 18:12:00,
2013-03-24 13:27:00,40.3,18.0,30.24,North,11,12.0,21.0,40,0.00,,,0.00,weatherlink.com 1.10,2013-03-24 18:27:00,
2013-03-24 13:42:00,40.9,15.0,30.23,NNE,29,9.0,18.0,35,0.00,,,0.00,weatherlink.com 1.10,2013-03-24 18:42:00,
2013-03-24 13:57:00,42.0,13.0,30.23,North,355,11.0,21.0,31,0.00,,,0.00,weatherlink.com 1.10,2013-03-24 18:57:00,
2013-03-24 14:12:00,41.8,13.0,30.22,North,355,12.0,22.0,31,0.00,,,0.00,weatherlink.com 1.10,2013-03-24 19:12:00,
2013-03-24 14:27:00,42.6,17.0,30.22,ENE,64,9.0,18.0,35,0.00,,,0.00,weatherlink.com 1.10,2013-03-24 19:27:00,
2013-03-24 14:42:00,42.3,15.0,30.21,North,355,15.0,19.0,33,0.00,,,0.00,weatherlink.com 1.10,2013-03-24 19:42:00,
2013-03-24 14:57:00,42.8,15.0,30.21,NNE,12,14.0,21.0,32,0.00,,,0.00,weatherlink.com 1.10,2013-03-24 19:57:00,
2013-03-24 15:12:00,43.4,14.0,30.20,North,360,11.0,18.0,31,0.00,,,0.00,weatherlink.com 1.10,2013-03-24 20:12:00,
2013-03-24 15:27:00,43.7,16.0,30.20,NW,309,9.0,14.0,33,0.00,,,0.00,weatherlink.com 1.10,2013-03-24 20:27:00,
2013-03-24 15:42:00,43.8,14.0,30.20,NNW,338,8.0,15.0,30,0.00,,,0.00,weatherlink.com 1.10,2013-03-24 20:42:00,
2013-03-24 15:57:00,44.5,14.0,30.20,North,360,4.0,18.0,29,0.00,,,0.00,weatherlink.com 1.10,2013-03-24 20:57:00,
2013-03-24 16:12:00,44.4,15.0,30.20,NW,323,6.0,14.0,30,0.00,,,0.00,weatherlink.com 1.10,2013-03-24 21:12:00,
2013-03-24 16:27:00,44.9,13.0,30.19,NNW,330,9.0,17.0,28,0.00,,,0.00,weatherlink.com 1.10,2013-03-24 21:27:00,
2013-03-24 16:42:00,44.6,13.0,30.19,NNW,328,8.0,20.0,28,0.00,,,0.00,weatherlink.com 1.10,2013-03-24 21:42:00,
2013-03-24 16:57:00,45.1,14.0,30.18,East,84,10.0,17.0,29,0.00,,,0.00,weatherlink.com 1.10,2013-03-24 21:57:00,
2013-03-24 17:12:00,44.7,13.0,30.19,NE,34,5.0,16.0,28,0.00,,,0.00,weatherlink.com 1.10,2013-03-24 22:12:00,
2013-03-24 17:27:00,44.8,12.0,30.19,North,355,11.0,17.0,26,0.00,,,0.00,weatherlink.com 1.10,2013-03-24 22:27:00,
2013-03-24 17:42:00,45.0,13.0,30.18,NNW,342,6.0,15.0,27,0.00,,,0.00,weatherlink.com 1.10,2013-03-24 22:42:00,
2013-03-24 17:57:00,44.6,12.0,30.19,NNW,339,6.0,16.0,27,0.00,,,0.00,weatherlink.com 1.10,2013-03-24 22:57:00,
2013-03-24 18:12:00,44.3,12.0,30.19,NNW,348,10.0,16.0,27,0.00,,,0.00,weatherlink.com 1.10,2013-03-24 23:12:00,
2013-03-24 18:27:00,44.2,14.0,30.20,NNE,22,9.0,14.0,29,0.00,,,0.00,weatherlink.com 1.10,2013-03-24 23:27:00,
2013-03-24 18:42:00,44.3,14.0,30.20,North,360,3.0,11.0,29,0.00,,,0.00,weatherlink.com 1.10,2013-03-24 23:42:00,
2013-03-24 18:57:00,43.5,14.0,30.20,NE,53,5.0,15.0,30,0.00,,,0.00,weatherlink.com 1.10,2013-03-24 23:57:00,
2013-03-24 19:12:00,43.1,15.0,30.20,NNE,18,4.0,12.0,32,0.00,,,0.00,weatherlink.com 1.10,2013-03-25 00:12:00,
2013-03-24 19:27:00,42.3,13.0,30.21,NE,49,5.0,12.0,31,0.00,,,0.00,weatherlink.com 1.10,2013-03-25 00:27:00,
2013-03-24 19:42:00,41.3,13.0,30.21,NNW,348,8.0,10.0,32,0.00,,,0.00,weatherlink.com 1.10,2013-03-25 00:42:00,
2013-03-24 19:57:00,39.9,15.0,30.21,NE,42,3.0,9.0,36,0.00,,,0.00,weatherlink.com 1.10,2013-03-25 00:57:00,
2013-03-24 20:12:00,38.5,16.0,30.22,NE,48,3.0,7.0,40,0.00,,,0.00,weatherlink.com 1.10,2013-03-25 01:12:00,
2013-03-24 20:27:00,37.7,16.0,30.22,NE,36,3.0,6.0,41,0.00,,,0.00,weatherlink.com 1.10,2013-03-25 01:27:00,
2013-03-24 20:42:00,37.1,16.0,30.23,NNE,15,3.0,6.0,43,0.00,,,0.00,weatherlink.com 1.10,2013-03-25 01:42:00,
2013-03-24 20:57:00,36.1,16.0,30.23,NE,39,2.0,5.0,45,0.00,,,0.00,weatherlink.com 1.10,2013-03-25 01:57:00,
2013-03-24 21:12:00,34.5,16.0,30.23,NE,34,3.0,6.0,48,0.00,,,0.00,weatherlink.com 1.10,2013-03-25 02:12:00,
2013-03-24 21:27:00,34.2,16.0,30.23,NNE,18,3.0,9.0,48,0.00,,,0.00,weatherlink.com 1.10,2013-03-25 02:27:00,
2013-03-24 21:42:00,33.9,16.0,30.25,NNE,28,2.0,8.0,49,0.00,,,0.00,weatherlink.com 1.10,2013-03-25 02:42:00,
2013-03-24 21:57:00,33.2,17.0,30.26,NE,38,3.0,6.0,51,0.00,,,0.00,weatherlink.com 1.10,2013-03-25 02:57:00,
2013-03-24 22:12:00,33.0,17.0,30.26,NE,36,4.0,8.0,51,0.00,,,0.00,weatherlink.com 1.10,2013-03-25 03:12:00,
2013-03-24 22:27:00,33.0,17.0,30.27,NNE,20,4.0,10.0,51,0.00,,,0.00,weatherlink.com 1.10,2013-03-25 03:27:00,
2013-03-24 22:42:00,32.6,17.0,30.27,NE,51,5.0,9.0,52,0.00,,,0.00,weatherlink.com 1.10,2013-03-25 03:42:00,
2013-03-24 22:57:00,32.3,17.0,30.28,NNE,24,4.0,9.0,53,0.00,,,0.00,weatherlink.com 1.10,2013-03-25 03:57:00,
2013-03-24 23:12:00,32.2,17.0,30.27,North,9,5.0,8.0,53,0.00,,,0.00,weatherlink.com 1.10,2013-03-25 04:12:00,
2013-03-24 23:28:00,32.5,17.0,30.28,NNW,332,2.0,10.0,53,0.00,,,0.00,weatherlink.com 1.10,2013-03-25 04:28:00,
2013-03-24 23:43:00,31.8,17.0,30.29,NNW,329,3.0,6.0,55,0.00,,,0.00,weatherlink.com 1.10,2013-03-25 04:43:00,
2013-03-24 23:58:00,31.3,17.0,30.29,NNW,348,2.0,6.0,56,0.00,,,0.00,weatherlink.com 1.10,2013-03-25 04:58:00,